Location: Karcze
(52.0945°N, 22.4786°E)
Time: 18:06:04
(UTC+00:00)

SHAONIAN XING - Pass Details

Date: 04 December 2021
Orbit: 466 x 487 km, 97.5° (Epoch: 27 January)

Event Time Altitude Azimuth Distance (km) Brightness Sun altitude
Rises 14:57:21 0° 359° (N) 2,558 ? -5.6°
Reaches altitude 10° 15:00:10 10° 334° (NNW) 1,678 ? -6.0°
Maximum altitude 15:02:08 14° 301° (WNW) 1,431 ? -6.3°
Drops below altitude 10° 15:04:07 10° 267° (W) 1,678 ? -6.5°
Sets 15:06:56 0° 243° (WSW) 2,558 ? -6.9°
